TimeCDT,TemperatureF,Dew PointF,Humidity,Sea Level PressureIn,VisibilityMPH,Wind Direction,Wind SpeedMPH,Gust SpeedMPH,PrecipitationIn,Events,Conditions,WindDirDegrees,DateUTC
12:15 AM,37.4,26.6,65,30.12,10.0,NW,9.2,-,N/A,,Partly Cloudy,310,2013-05-11 05:15:00
12:35 AM,37.4,26.6,65,30.12,10.0,WNW,8.1,-,N/A,,Mostly Cloudy,300,2013-05-11 05:35:00
12:55 AM,37.4,26.6,65,30.13,10.0,WNW,11.5,-,N/A,,Mostly Cloudy,300,2013-05-11 05:55:00
1:15 AM,37.4,28.4,70,30.13,10.0,NW,19.6,24.2,N/A,,Mostly Cloudy,320,2013-05-11 06:15:00
1:35 AM,37.4,28.4,70,30.13,10.0,NW,17.3,-,N/A,,Partly Cloudy,310,2013-05-11 06:35:00
1:55 AM,37.4,30.2,75,30.13,10.0,NW,17.3,20.7,N/A,,Scattered Clouds,320,2013-05-11 06:55:00
2:15 AM,37.4,30.2,75,30.13,10.0,NW,15.0,20.7,N/A,,Mostly Cloudy,310,2013-05-11 07:15:00
2:35 AM,37.4,30.2,75,30.13,10.0,NW,23.0,33.4,N/A,,Overcast,320,2013-05-11 07:35:00
2:55 AM,37.4,30.2,75,30.13,10.0,NW,15.0,-,N/A,,Overcast,320,2013-05-11 07:55:00
3:15 AM,37.4,30.2,75,30.13,10.0,NW,12.7,-,N/A,,Mostly Cloudy,320,2013-05-11 08:15:00
3:35 AM,37.4,30.2,75,30.14,10.0,NW,21.9,27.6,N/A,,Mostly Cloudy,310,2013-05-11 08:35:00
3:55 AM,35.6,28.4,75,30.15,10.0,NW,21.9,-,N/A,,Mostly Cloudy,320,2013-05-11 08:55:00
4:15 AM,35.6,28.4,75,30.15,10.0,NW,21.9,-,N/A,,Mostly Cloudy,320,2013-05-11 09:15:00
4:35 AM,35.6,28.4,75,30.16,10.0,NW,19.6,-,N/A,,Overcast,320,2013-05-11 09:35:00
4:55 AM,33.8,26.6,75,30.16,10.0,NW,18.4,-,N/A,,Mostly Cloudy,320,2013-05-11 09:55:00
5:15 AM,33.8,26.6,75,30.17,10.0,NW,19.6,-,N/A,,Clear,320,2013-05-11 10:15:00
5:35 AM,33.8,26.6,75,30.17,10.0,NW,18.4,-,N/A,,Clear,320,2013-05-11 10:35:00
5:55 AM,32.0,26.6,80,30.18,10.0,NW,19.6,25.3,N/A,,Clear,320,2013-05-11 10:55:00
6:15 AM,32.0,24.8,75,30.18,10.0,NW,19.6,-,N/A,,Clear,320,2013-05-11 11:15:00
6:35 AM,32.0,24.8,75,30.19,10.0,NW,19.6,-,N/A,,Clear,320,2013-05-11 11:35:00
6:55 AM,33.8,24.8,70,30.20,10.0,NW,20.7,25.3,N/A,,Clear,320,2013-05-11 11:55:00
7:15 AM,33.8,24.8,70,30.21,10.0,NW,20.7,27.6,N/A,,Scattered Clouds,320,2013-05-11 12:15:00
7:35 AM,33.8,24.8,70,30.21,10.0,NW,23.0,28.8,N/A,,Scattered Clouds,320,2013-05-11 12:35:00
7:55 AM,33.8,24.8,70,30.22,10.0,NW,25.3,31.1,N/A,,Mostly Cloudy,320,2013-05-11 12:55:00
8:15 AM,33.8,24.8,70,30.22,10.0,NW,24.2,-,N/A,,Overcast,320,2013-05-11 13:15:00
8:35 AM,35.6,24.8,65,30.22,10.0,NW,23.0,29.9,N/A,,Overcast,320,2013-05-11 13:35:00
8:55 AM,35.6,24.8,65,30.23,10.0,NNW,28.8,35.7,N/A,,Overcast,330,2013-05-11 13:55:00
9:15 AM,35.6,23.0,60,30.24,10.0,NNW,21.9,31.1,N/A,,Overcast,340,2013-05-11 14:15:00
9:35 AM,37.4,24.8,60,30.24,10.0,NNW,24.2,31.1,N/A,,Overcast,340,2013-05-11 14:35:00
9:55 AM,37.4,21.2,52,30.24,10.0,North,21.9,34.5,N/A,,Mostly Cloudy,350,2013-05-11 14:55:00
10:15 AM,37.4,23.0,56,30.24,10.0,NNW,26.5,32.2,N/A,,Overcast,330,2013-05-11 15:15:00
10:35 AM,37.4,24.8,60,30.24,10.0,NW,24.2,31.1,N/A,,Mostly Cloudy,320,2013-05-11 15:35:00
10:55 AM,39.2,21.2,49,30.25,10.0,North,19.6,29.9,N/A,,Mostly Cloudy,350,2013-05-11 15:55:00
11:15 AM,41.0,24.8,53,30.25,10.0,North,24.2,29.9,N/A,,Mostly Cloudy,350,2013-05-11 16:15:00
11:35 AM,41.0,23.0,49,30.25,10.0,NNW,25.3,29.9,N/A,,Mostly Cloudy,340,2013-05-11 16:35:00
11:55 AM,41.0,24.8,53,30.25,10.0,NW,24.2,28.8,N/A,,Mostly Cloudy,310,2013-05-11 16:55:00
12:15 PM,41.0,23.0,49,30.26,10.0,NW,26.5,31.1,N/A,,Overcast,320,2013-05-11 17:15:00
12:35 PM,42.8,24.8,49,30.25,10.0,NNW,20.7,27.6,N/A,,Scattered Clouds,330,2013-05-11 17:35:00
12:55 PM,44.6,21.2,39,30.25,10.0,North,20.7,31.1,N/A,,Partly Cloudy,350,2013-05-11 17:55:00
1:15 PM,42.8,21.2,42,30.25,10.0,NW,23.0,29.9,N/A,,Scattered Clouds,320,2013-05-11 18:15:00
1:35 PM,44.6,23.0,43,30.24,10.0,NW,25.3,31.1,N/A,,Mostly Cloudy,320,2013-05-11 18:35:00
1:55 PM,46.4,21.2,37,30.24,10.0,NNW,23.0,27.6,N/A,,Scattered Clouds,330,2013-05-11 18:55:00
2:15 PM,46.4,21.2,37,30.24,10.0,North,15.0,31.1,N/A,,Mostly Cloudy,350,2013-05-11 19:15:00
2:35 PM,46.4,19.4,34,30.24,10.0,NNW,19.6,29.9,N/A,,Mostly Cloudy,330,2013-05-11 19:35:00
2:55 PM,46.4,19.4,34,30.24,10.0,NNW,20.7,28.8,N/A,,Scattered Clouds,340,2013-05-11 19:55:00
3:15 PM,46.4,19.4,34,30.24,10.0,NW,25.3,28.8,N/A,,Scattered Clouds,310,2013-05-11 20:15:00
3:35 PM,46.4,21.2,37,30.24,10.0,NNW,21.9,29.9,N/A,,Scattered Clouds,340,2013-05-11 20:35:00
3:55 PM,48.2,21.2,34,30.23,10.0,NNW,24.2,28.8,N/A,,Mostly Cloudy,340,2013-05-11 20:55:00
4:15 PM,46.4,17.6,32,30.22,10.0,NW,23.0,27.6,N/A,,Scattered Clouds,320,2013-05-11 21:15:00
4:35 PM,46.4,17.6,32,30.22,10.0,NNW,21.9,-,N/A,,Partly Cloudy,340,2013-05-11 21:35:00
4:55 PM,48.2,17.6,30,30.22,10.0,NNW,21.9,27.6,N/A,,Partly Cloudy,340,2013-05-11 21:55:00
5:15 PM,48.2,19.4,32,30.22,10.0,NNW,19.6,29.9,N/A,,Partly Cloudy,330,2013-05-11 22:15:00
5:35 PM,46.4,17.6,32,30.22,10.0,NW,18.4,24.2,N/A,,Partly Cloudy,320,2013-05-11 22:35:00
5:55 PM,46.4,17.6,32,30.22,10.0,NNW,21.9,27.6,N/A,,Partly Cloudy,330,2013-05-11 22:55:00
6:15 PM,46.4,17.6,32,30.22,10.0,NW,18.4,25.3,N/A,,Partly Cloudy,320,2013-05-11 23:15:00
6:35 PM,46.4,19.4,34,30.22,10.0,NNW,19.6,24.2,N/A,,Scattered Clouds,330,2013-05-11 23:35:00
6:55 PM,46.4,19.4,34,30.22,10.0,North,18.4,-,N/A,,Partly Cloudy,350,2013-05-11 23:55:00
7:15 PM,46.4,19.4,34,30.22,10.0,NW,17.3,-,N/A,,Partly Cloudy,320,2013-05-12 00:15:00
7:35 PM,46.4,17.6,32,30.22,10.0,NNW,17.3,-,N/A,,Partly Cloudy,340,2013-05-12 00:35:00
7:55 PM,44.6,17.6,34,30.22,10.0,NNW,13.8,17.3,N/A,,Clear,330,2013-05-12 00:55:00
8:15 PM,44.6,19.4,37,30.22,10.0,NNW,12.7,-,N/A,,Partly Cloudy,330,2013-05-12 01:15:00
8:35 PM,44.6,17.6,34,30.22,10.0,North,11.5,-,N/A,,Clear,350,2013-05-12 01:35:00
8:55 PM,42.8,19.4,39,30.22,10.0,North,10.4,-,N/A,,Clear,350,2013-05-12 01:55:00
9:15 PM,41.0,19.4,42,30.23,10.0,North,6.9,-,N/A,,Clear,350,2013-05-12 02:15:00
9:35 PM,37.4,19.4,48,30.23,10.0,NNW,5.8,-,N/A,,Clear,340,2013-05-12 02:35:00
9:55 PM,35.6,17.6,48,30.23,10.0,NNW,3.5,-,N/A,,Clear,330,2013-05-12 02:55:00
10:15 PM,35.6,19.4,52,30.23,10.0,NNW,5.8,-,N/A,,Clear,340,2013-05-12 03:15:00
10:35 PM,33.8,19.4,56,30.23,10.0,NNW,4.6,-,N/A,,Clear,330,2013-05-12 03:35:00
10:55 PM,35.6,19.4,52,30.23,10.0,NNW,5.8,-,N/A,,Clear,340,2013-05-12 03:55:00
11:15 PM,35.6,19.4,52,30.23,10.0,North,6.9,-,N/A,,Clear,360,2013-05-12 04:15:00
11:35 PM,35.6,17.6,48,30.23,10.0,North,6.9,-,N/A,,Clear,350,2013-05-12 04:35:00
11:55 PM,35.6,17.6,48,30.24,10.0,NNW,5.8,-,N/A,,Clear,340,2013-05-12 04:55:00